Stanley, ND

7:09 PM CDT on July 27, 2017 (GMT -0500)
Stanley

Weather History for K08D - December, 2012

Change the Weather History Date:

Friday, December 7, 2012

  Actual Average (KMIB) Record (KMIB)
Temperature  
Mean Temperature 12 °F -  
Max Temperature 15 °F 27 °F 50 °F (2015)
Min Temperature 8 °F 11 °F -20 °F (2013)
Degree Days  
Heating Degree Days 54    
Moisture  
Dew Point 11 °F    
Average Humidity 94    
Maximum Humidity 100    
Minimum Humidity 85    
Precipitation  
Precipitation 0.77 in - - ()
Sea Level Pressure  
Sea Level Pressure 29.94 in    
Wind  
Wind Speed 7 mph (East)    
Max Wind Speed 16 mph    
Max Gust Speed 16 mph    
Visibility 7 miles    
Events Fog , Snow    
Averages and records for this station are not official NWS values.
T = Trace of Precipitation, MM = Missing Value Source: NWS Daily Summary

Daily Weather History Graph

Daily Weather History Graph

Search for Another Location

Airport or City:

Trip Planner

Search our weather history database for the weather conditions in past years. The results will help you decide how hot, cold, wet, or windy it might be!

Date:

Astronomy

Dec. 07, 2012 Rise Set
Actual Time 8:27 AM CST 4:55 PM CST
Civil Twilight 7:50 AM CST 5:31 PM CST
Nautical Twilight 7:11 AM CST 6:11 PM CST
Astronomical Twilight 6:33 AM CST 6:49 PM CST
Moon 1:22 AM CST (12/7) 1:17 PM CST (12/7)
Length of Visible Light 9h 40m
Length of Day
8h 28m
Last Quarter, 38% of the Moon is Illuminated
Dec 7
Last Quarter
Dec 13
New
Dec 19
First Quarter
Dec 28
Full
Jan 4
Last Quarter

Hourly Weather History & Observations

Time (CST) Temp. Windchill Dew Point Humidity Pressure Visibility Wind Dir Wind Speed Gust Speed Precip Events Conditions
12:15 AM 15.8 °F 8.6 °F 15.8 °F 100% 29.94 in 0.5 mi NE 4.6 mph - N/A Fog Light Freezing Fog
12:35 AM 15.8 °F 8.6 °F 14.0 °F 93% 29.93 in 0.5 mi NE 4.6 mph - N/A Fog Light Freezing Fog
12:55 AM 14.0 °F 6.5 °F 14.0 °F 100% 29.94 in 0.5 mi NNE 4.6 mph - N/A Fog Light Freezing Fog
1:15 AM 15.8 °F 7.2 °F 15.8 °F 100% 29.94 in 0.5 mi NE 5.8 mph - N/A Fog Light Freezing Fog
1:35 AM 15.8 °F 7.2 °F 15.8 °F 100% 29.94 in 0.5 mi NNE 5.8 mph - N/A Fog Light Freezing Fog
1:55 AM 15.8 °F 8.6 °F 15.8 °F 100% 29.94 in 0.5 mi NE 4.6 mph - N/A Fog Light Freezing Fog
2:15 AM 15.8 °F 7.2 °F 15.8 °F 100% 29.94 in 0.5 mi ENE 5.8 mph - N/A Fog Light Freezing Fog
2:35 AM 15.8 °F 10.2 °F 15.8 °F 100% 29.94 in 0.2 mi NE 3.5 mph - N/A Fog Light Freezing Fog
2:55 AM 15.8 °F 7.2 °F 15.8 °F 100% 29.94 in 0.5 mi NNE 5.8 mph - N/A Fog Light Freezing Fog
3:15 AM 15.8 °F 7.2 °F 15.8 °F 100% 29.94 in 0.5 mi NE 5.8 mph - N/A Fog Light Freezing Fog
3:35 AM 15.8 °F 5.1 °F 14.0 °F 93% 29.94 in 0.5 mi ENE 8.1 mph - N/A Fog Light Freezing Fog
3:55 AM 15.8 °F 7.2 °F 14.0 °F 93% 29.94 in 0.8 mi ENE 5.8 mph - N/A   Overcast
4:15 AM 14.0 °F 5.1 °F 14.0 °F 100% 29.94 in 0.8 mi ENE 5.8 mph - N/A   Overcast
4:35 AM 15.8 °F 5.1 °F 14.0 °F 93% 29.94 in 1.5 mi East 8.1 mph - N/A   Overcast
4:55 AM 15.8 °F 7.2 °F 14.0 °F 93% 29.94 in 1.0 mi NE 5.8 mph - N/A   Overcast
5:15 AM 14.0 °F 5.1 °F 14.0 °F 100% 29.94 in 5.0 mi ENE 5.8 mph - N/A   Overcast
5:35 AM 14.0 °F 3.9 °F 14.0 °F 100% 29.95 in 10.0 mi East 6.9 mph - N/A   Overcast
5:55 AM 14.0 °F 3.9 °F 14.0 °F 100% 29.95 in 8.0 mi East 6.9 mph - N/A   Overcast
6:15 AM 14.0 °F 2.9 °F 14.0 °F 100% 29.95 in 10.0 mi ENE 8.1 mph - N/A   Overcast
6:35 AM 14.0 °F 5.1 °F 14.0 °F 100% 29.95 in 10.0 mi ENE 5.8 mph - N/A   Overcast
6:55 AM 14.0 °F 5.1 °F 14.0 °F 100% 29.95 in 7.0 mi ENE 5.8 mph - N/A   Overcast
7:15 AM 14.0 °F 2.9 °F 12.2 °F 93% 29.96 in 10.0 mi ENE 8.1 mph - N/A   Overcast
7:35 AM 14.0 °F 3.9 °F 12.2 °F 93% 29.97 in 10.0 mi ENE 6.9 mph - N/A Snow Light Snow
7:55 AM 12.2 °F 1.7 °F 10.4 °F 92% 29.97 in 10.0 mi ENE 6.9 mph - N/A   Overcast
8:15 AM 12.2 °F 4.3 °F 12.2 °F 100% 29.97 in 10.0 mi East 4.6 mph - N/A   Overcast
8:35 AM 12.2 °F 2.9 °F 12.2 °F 100% 29.97 in 10.0 mi East 5.8 mph - N/A   Overcast
8:55 AM 12.2 °F 0.7 °F 10.4 °F 92% 29.97 in 10.0 mi East 8.1 mph - N/A   Overcast
9:15 AM 10.4 °F -0.4 °F 10.4 °F 100% 29.97 in 10.0 mi ENE 6.9 mph - N/A Snow Light Snow
9:35 AM 10.4 °F -0.4 °F 10.4 °F 100% 29.98 in 9.0 mi East 6.9 mph - N/A Snow Light Snow
9:55 AM 10.4 °F 0.8 °F 8.6 °F 92% 29.98 in 10.0 mi ENE 5.8 mph - N/A   Overcast
10:15 AM 10.4 °F -1.5 °F 8.6 °F 92% 29.99 in 10.0 mi East 8.1 mph - N/A   Overcast
10:35 AM 10.4 °F -1.5 °F 8.6 °F 92% 29.99 in 10.0 mi East 8.1 mph - N/A   Overcast
10:55 AM 10.4 °F -2.4 °F 8.6 °F 92% 30.00 in 10.0 mi East 9.2 mph - N/A   Overcast
11:15 AM 10.4 °F -1.5 °F 8.6 °F 92% 30.00 in 10.0 mi East 8.1 mph - N/A Snow Light Snow
11:35 AM 10.4 °F -2.4 °F 10.4 °F 100% 29.99 in 10.0 mi ESE 9.2 mph - N/A Snow Light Snow
11:55 AM 10.4 °F -1.5 °F 10.4 °F 100% 29.99 in 10.0 mi East 8.1 mph - N/A   Mostly Cloudy
12:15 PM 12.2 °F 2.9 °F 10.4 °F 92% 29.98 in 10.0 mi East 5.8 mph - N/A   Mostly Cloudy
12:35 PM 14.0 °F 2.0 °F 12.2 °F 93% 29.97 in 10.0 mi East 9.2 mph - N/A Snow Light Snow
12:55 PM 14.0 °F 2.9 °F 12.2 °F 93% 29.97 in 10.0 mi East 8.1 mph - N/A Snow Light Snow
1:15 PM 14.0 °F 3.9 °F 12.2 °F 93% 29.97 in 10.0 mi East 6.9 mph - N/A   Partly Cloudy
1:35 PM 14.0 °F 2.9 °F 12.2 °F 93% 29.97 in 10.0 mi East 8.1 mph - N/A Snow Light Snow
1:55 PM 14.0 °F 2.9 °F 12.2 °F 93% 29.96 in 10.0 mi East 8.1 mph - N/A   Clear
2:15 PM 14.0 °F 1.2 °F 12.2 °F 93% 29.96 in 10.0 mi East 10.4 mph - N/A   Clear
2:35 PM 12.2 °F -1.0 °F 12.2 °F 100% 29.95 in 10.0 mi ESE 10.4 mph - N/A   Scattered Clouds
2:55 PM 12.2 °F 0.7 °F 10.4 °F 92% 29.94 in 10.0 mi East 8.1 mph - N/A   Overcast
3:15 PM 12.2 °F -0.2 °F 10.4 °F 92% 29.94 in 10.0 mi ESE 9.2 mph - N/A   Mostly Cloudy
3:35 PM 12.2 °F -0.2 °F 10.4 °F 92% 29.94 in 10.0 mi East 9.2 mph - N/A   Partly Cloudy
3:55 PM 12.2 °F 0.7 °F 10.4 °F 92% 29.94 in 10.0 mi East 8.1 mph - N/A   Scattered Clouds
4:15 PM 12.2 °F -0.2 °F 10.4 °F 92% 29.95 in 10.0 mi East 9.2 mph - N/A   Overcast
4:35 PM 12.2 °F 0.7 °F 10.4 °F 92% 29.94 in 10.0 mi East 8.1 mph - N/A   Overcast
4:55 PM 10.4 °F -3.3 °F 8.6 °F 92% 29.95 in 10.0 mi East 10.4 mph - N/A   Overcast
5:15 PM 10.4 °F -3.3 °F 8.6 °F 92% 29.94 in 10.0 mi East 10.4 mph - N/A   Overcast
5:35 PM 10.4 °F -2.4 °F 6.8 °F 85% 29.94 in 10.0 mi East 9.2 mph - N/A   Overcast
5:55 PM 10.4 °F -2.4 °F 6.8 °F 85% 29.94 in 10.0 mi East 9.2 mph - N/A   Overcast
6:15 PM 10.4 °F -4.1 °F 6.8 °F 85% 29.93 in 10.0 mi East 11.5 mph - N/A   Mostly Cloudy
6:35 PM 10.4 °F -3.3 °F 6.8 °F 85% 29.93 in 10.0 mi East 10.4 mph 16.1 mph N/A   Overcast
7:15 PM 10.4 °F -4.8 °F 6.8 °F 85% 29.92 in 10.0 mi ESE 12.7 mph - N/A   Overcast
7:35 PM 8.6 °F -7.7 °F 6.8 °F 92% 29.91 in 10.0 mi ESE 13.8 mph - N/A   Overcast
7:55 PM 8.6 °F -7.0 °F 6.8 °F 92% 29.91 in 10.0 mi ESE 12.7 mph - N/A   Overcast
8:15 PM 8.6 °F -7.7 °F 6.8 °F 92% 29.90 in 10.0 mi ESE 13.8 mph - N/A   Overcast
8:35 PM 8.6 °F -8.9 °F 6.8 °F 92% 29.89 in 10.0 mi ESE 16.1 mph - N/A Snow Light Snow
8:55 PM 8.6 °F -7.7 °F 6.8 °F 92% 29.88 in 10.0 mi ESE 13.8 mph - N/A   Overcast
9:15 PM 8.6 °F -7.7 °F 6.8 °F 92% 29.87 in 10.0 mi East 13.8 mph - N/A   Overcast
9:35 PM 10.4 °F -5.4 °F 6.8 °F 85% 29.87 in 1.0 mi ESE 13.8 mph - 0.03 in Snow Light Snow
9:55 PM 10.4 °F -4.1 °F 8.6 °F 92% 29.86 in 1.0 mi ESE 11.5 mph - 0.13 in Snow Light Snow
10:15 PM 10.4 °F -4.1 °F 8.6 °F 92% 29.85 in 0.8 mi ESE 11.5 mph - 0.09 in Snow Light Snow
10:35 PM 10.4 °F -3.3 °F 8.6 °F 92% 29.84 in 0.5 mi East 10.4 mph - 0.40 in Snow Snow
10:55 PM 10.4 °F -2.4 °F 8.6 °F 92% 29.84 in 1.5 mi East 9.2 mph - 0.64 in Snow Light Snow
11:15 PM 10.4 °F -2.4 °F 8.6 °F 92% 29.83 in 10.0 mi East 9.2 mph - N/A Snow Light Snow
11:35 PM 10.4 °F -1.5 °F 8.6 °F 92% 29.84 in 10.0 mi East 8.1 mph - N/A Snow Light Snow
11:55 PM 10.4 °F -2.4 °F 8.6 °F 92% 29.83 in 10.0 mi East 9.2 mph - N/A Snow Light Snow